Home > Weather > Alert > Past weeks

Flag for Canada Weather for the Past 2 Weeks in Alert, Nunavut, Canada

Now
1 °F

Low clouds.


Feels Like: -11 °F
Forecast: -4 / 7 °F
Wind: 7 mph from Southeast

Location: Alert Airport

Current Time: May 4, 2016 at 9:40:49 PM

Latest Report: May 4, 2016 at 6:00 PM


Visibility: 12 mi

Pressure: 30.28 "Hg

Humidity: 85%

Dew Point: -2 °F

Location of AlertLocation

Historic Weather in Alert — Graph

°F

Alert Temperature Yesterday

Maximum temperature yesterday: 1 °F (at 12:00 PM)
Minimum temperature yesterday: -2 °F (at 2:00 AM)
Average temperature yesterday: 0 °F

High & Low Weather Summary for the Past Weeks

 TemperatureHumidityPressure
High9 °F (Apr 30, 9:00 AM)92% (Apr 30, 8:00 AM)30.60 "Hg (Apr 30, 8:00 AM)
Low-20 °F (Apr 22, 2:00 AM)59% (Apr 21, 1:00 PM)30.19 "Hg (Apr 30, 3:00 AM)
Average-2 °F77%30.37 "Hg
* Reported Apr 19 6:00 PM — May 4 6:00 PM, Alert, Weather by CustomWeather, © 2016

Note: Actual official high and low records may vary slightly from our data, if they occured in-between our weather recording intervals... More about our weather records

Advertising

Alert Weather History for the Previous 24 Hours

Scroll right to see more
 ConditionsComfort  
Time TempWeatherWind HumidityBarometerVisibility
6:00 PM
Wed, May 4
1 °FLow clouds.7 mph85%30.28 "Hg12 mi
5:00 PM1 °FLow clouds.6 mph85%30.28 "Hg10 mi
4:00 PM1 °FIce fog.3 mph85%30.28 "Hg6 mi
3:00 PM1 °FIce fog.3 mph85%30.28 "Hg5 mi
2:52 PM3 °FIce fog.5 mph85%30.28 "Hg5 mi
2:00 PM1 °FLight snow. Ice fog.3 mph85%30.28 "Hg4 mi
1:00 PM1 °FLight snow. Ice fog.2 mph85%30.29 "Hg3 mi
12:00 PM3 °FLight snow. Ice fog.No wind85%30.29 "Hg3 mi
11:00 AM1 °FLight snow. Ice fog.No wind85%30.29 "Hg3 mi
10:00 AM3 °FLight snow. Ice fog.No wind85%30.30 "Hg3 mi
9:00 AM1 °FIce fog.No wind85%30.31 "Hg3 mi
8:00 AM1 °FLight snow. Ice fog.5 mph85%30.31 "Hg3 mi
7:00 AM1 °FLight snow. Ice fog.5 mph85%30.32 "Hg4 mi
6:00 AM1 °FLight snow. Ice fog.5 mph85%30.32 "Hg4 mi
5:00 AM1 °FLight snow. Ice fog.7 mph78%30.32 "Hg4 mi
4:00 AM0 °FLight snow. Low clouds.7 mph84%30.32 "Hg6 mi
3:00 AM0 °FLight snow. Low clouds.5 mph84%30.33 "Hg6 mi
2:00 AM0 °FLow clouds.6 mph78%30.34 "Hg10 mi
1:00 AM0 °FLow clouds.6 mph78%30.34 "Hg10 mi
Weather by CustomWeather, © 2016

See weather overviewHow to use our weather pages